User: anonymous   Login
Location: Caltech
(34.1382°N, 118.1253°W)
Time: 08:24:40
(UTC-07:00)
Language:

Cosmos 1833 - Orbit

View from above orbital plane
View from above orbital plane
View from above satellite
View from above satellite

Ground track
Ground track

The orbit data is extracted from the following two-line orbital elements,

1 17589U 87027A   15212.40690272  .00000027  00000-0  40423-4 0  9991
2 17589 070.9198 187.9426 0018278 272.9707 196.2677 14.12877272463308
Epoch (UTC): 31 July 2015 09:45:56
Eccentricity: 0.0018278
inclination: 70.9198°
perigee height: 836 km
apogee height: 863 km
right ascension of ascending node: 187.9426°
argument of perigee: 272.9707°
revolutions per day: 14.12877272
mean anomaly at epoch: 196.2677°
orbit number at epoch: 46330

The dashed part of the orbit path shows where the satellite is in the earth's shadow,  

DLR